| time (UTC) | temp C | wind direction | speed KPH | gust KPH | rain 1hr cm | rain 24hr cm | rain mn cm | humidity % | barometer mb |
| 20260508111622 | 2 | 78 | 0.0 | 0.0 | 0.00 | 0.00 | 0.00 | 97 | 1019.9 |
| 20260508111119 | 1 | 91 | 0.0 | 0.0 | 0.00 | 0.00 | 0.00 | 97 | 1019.5 |
| 20260508110617 | 1 | 91 | 0.0 | 0.0 | 0.00 | 0.00 | 0.00 | 97 | 1019.6 |
| 20260508110114 | 1 | 91 | 0.0 | 0.0 | 0.00 | 0.00 | 0.00 | 97 | 1019.5 |
| 20260508105614 | 1 | 91 | 0.0 | 0.0 | 0.00 | 0.00 | 0.00 | 97 | 1019.6 |
| 20260508105111 | 1 | 91 | 0.0 | 0.0 | 0.00 | 0.00 | 0.00 | 96 | 1019.5 |
| 20260508104609 | 1 | 90 | 0.0 | 0.0 | 0.00 | 0.00 | 0.00 | 96 | 1019.4 |
| 20260508104105 | 1 | 90 | 0.0 | 0.0 | 0.00 | 0.00 | 0.00 | 96 | 1019.6 |
| 20260508103602 | 1 | 90 | 0.0 | 0.0 | 0.00 | 0.00 | 0.00 | 96 | 1019.4 |
| 20260508103059 | 1 | 90 | 0.0 | 0.0 | 0.00 | 0.00 | 0.00 | 96 | 1019.4 |
| 20260508102557 | 1 | 90 | 0.0 | 0.0 | 0.00 | 0.00 | 0.00 | 96 | 1019.2 |
| 20260508102054 | 1 | 90 | 0.0 | 0.0 | 0.00 | 0.00 | 0.00 | 96 | 1019.2 |
| 20260508101552 | 1 | 90 | 0.0 | 0.0 | 0.00 | 0.00 | 0.00 | 96 | 1019.3 |
| 20260508101049 | 1 | 90 | 0.0 | 0.0 | 0.00 | 0.00 | 0.00 | 96 | 1019.3 |
| 20260508100547 | 1 | 90 | 0.0 | 0.0 | 0.00 | 0.00 | 0.00 | 96 | 1019.2 |
| 20260508100043 | 1 | 90 | 0.0 | 0.0 | 0.00 | 0.00 | 0.00 | 96 | 1019.2 |
| 20260508095541 | 1 | 90 | 0.0 | 0.0 | 0.00 | 0.00 | 0.00 | 96 | 1019.1 |
| 20260508095037 | 1 | 91 | 0.0 | 0.0 | 0.00 | 0.00 | 0.00 | 96 | 1019.1 |
| 20260508094535 | 1 | 91 | 0.0 | 0.0 | 0.00 | 0.00 | 0.00 | 96 | 1019.0 |
| 20260508094031 | 1 | 91 | 0.0 | 0.0 | 0.00 | 0.00 | 0.00 | 96 | 1018.8 |
| 20260508093528 | 1 | 91 | 0.0 | 0.0 | 0.00 | 0.00 | 0.00 | 96 | 1019.0 |
| 20260508093026 | 1 | 91 | 0.0 | 0.0 | 0.00 | 0.00 | 0.00 | 96 | 1019.1 |
| 20260508092523 | 1 | 91 | 0.0 | 0.0 | 0.00 | 0.00 | 0.00 | 96 | 1018.8 |
| 20260508092022 | 0 | 91 | 0.0 | 0.0 | 0.00 | 0.00 | 0.00 | 96 | 1018.9 |
| 20260508091519 | 0 | 91 | 0.0 | 0.0 | 0.00 | 0.00 | 0.00 | 95 | 1018.8 |
| 20260508091016 | 0 | 91 | 0.0 | 0.0 | 0.00 | 0.00 | 0.00 | 95 | 1018.9 |
| 20260508090514 | 1 | 91 | 0.0 | 0.0 | 0.00 | 0.00 | 0.00 | 95 | 1018.7 |
| 20260508090010 | 1 | 91 | 0.0 | 0.0 | 0.00 | 0.00 | 0.00 | 95 | 1018.7 |
| 20260508085506 | 1 | 91 | 0.0 | 0.0 | 0.00 | 0.00 | 0.00 | 95 | 1018.6 |
| 20260508085003 | 1 | 91 | 0.0 | 0.0 | 0.00 | 0.00 | 0.00 | 95 | 1018.9 |
| 20260508084500 | 1 | 91 | 0.0 | 0.0 | 0.00 | 0.00 | 0.00 | 95 | 1018.8 |
| 20260508083958 | 1 | 91 | 0.0 | 0.0 | 0.00 | 0.00 | 0.00 | 95 | 1018.7 |
| 20260508083455 | 1 | 91 | 0.0 | 0.0 | 0.00 | 0.00 | 0.00 | 95 | 1018.8 |
| 20260508082950 | 1 | 91 | 0.0 | 0.0 | 0.00 | 0.00 | 0.00 | 95 | 1018.8 |
| 20260508082447 | 1 | 91 | 0.0 | 0.0 | 0.00 | 0.00 | 0.00 | 95 | 1018.8 |
| 20260508081945 | 1 | 91 | 0.0 | 0.0 | 0.00 | 0.00 | 0.00 | 95 | 1018.8 |
| 20260508081442 | 1 | 91 | 0.0 | 0.0 | 0.00 | 0.00 | 0.00 | 94 | 1018.9 |
| 20260508080937 | 1 | 91 | 0.0 | 0.0 | 0.00 | 0.00 | 0.00 | 94 | 1018.8 |
| 20260508080436 | 1 | 91 | 0.0 | 0.0 | 0.00 | 0.00 | 0.00 | 94 | 1018.8 |
| 20260508075933 | 1 | 91 | 0.0 | 0.0 | 0.00 | 0.00 | 0.00 | 94 | 1018.5 |
| 20260508075430 | 1 | 91 | 0.0 | 0.0 | 0.00 | 0.00 | 0.00 | 94 | 1018.5 |
| 20260508074927 | 1 | 91 | 0.0 | 0.0 | 0.00 | 0.00 | 0.00 | 94 | 1018.6 |
| 20260508074425 | 1 | 91 | 0.0 | 0.0 | 0.00 | 0.00 | 0.00 | 94 | 1018.5 |
| 20260508073921 | 1 | 91 | 0.0 | 0.0 | 0.00 | 0.00 | 0.00 | 93 | 1018.6 |
| 20260508073419 | 1 | 91 | 0.0 | 0.0 | 0.00 | 0.00 | 0.00 | 93 | 1018.6 |
| 20260508072916 | 1 | 91 | 0.0 | 0.0 | 0.00 | 0.00 | 0.00 | 92 | 1018.5 |
| 20260508072412 | 1 | 91 | 0.0 | 0.0 | 0.00 | 0.00 | 0.00 | 92 | 1018.5 |
| 20260508071909 | 2 | 91 | 0.0 | 0.0 | 0.00 | 0.00 | 0.00 | 91 | 1018.4 |
| 20260508071407 | 2 | 91 | 0.0 | 0.0 | 0.00 | 0.00 | 0.00 | 90 | 1018.4 |
| 20260508070905 | 2 | 91 | 0.0 | 0.0 | 0.00 | 0.00 | 0.00 | 90 | 1018.4 |
| 20260508070403 | 2 | 91 | 0.0 | 0.0 | 0.00 | 0.00 | 0.00 | 90 | 1018.5 |
| 20260508065900 | 2 | 91 | 0.0 | 0.0 | 0.00 | 0.00 | 0.00 | 89 | 1018.4 |
| 20260508065358 | 3 | 92 | 0.0 | 0.0 | 0.00 | 0.00 | 0.00 | 89 | 1018.5 |
| 20260508064856 | 3 | 92 | 0.0 | 0.0 | 0.00 | 0.00 | 0.00 | 89 | 1018.6 |
| 20260508064353 | 3 | 91 | 0.0 | 0.0 | 0.00 | 0.00 | 0.00 | 88 | 1018.4 |
| 20260508063851 | 3 | 88 | 0.0 | 0.0 | 0.00 | 0.00 | 0.00 | 87 | 1018.6 |
| 20260508063348 | 3 | 86 | 0.0 | 0.0 | 0.00 | 0.00 | 0.00 | 86 | 1018.6 |
| 20260508062846 | 3 | 86 | 1.6 | 0.0 | 0.00 | 0.00 | 0.00 | 85 | 1018.7 |
| 20260508062343 | 3 | 85 | 0.0 | 0.0 | 0.00 | 0.00 | 0.00 | 84 | 1018.6 |
| 20260508061840 | 3 | 85 | 0.0 | 0.0 | 0.00 | 0.00 | 0.00 | 84 | 1018.6 |
| 20260508061337 | 3 | 85 | 0.0 | 0.0 | 0.00 | 0.00 | 0.00 | 84 | 1018.7 |
| 20260508060833 | 3 | 85 | 0.0 | 0.0 | 0.00 | 0.00 | 0.00 | 82 | 1018.6 |
| 20260508060331 | 3 | 85 | 0.0 | 0.0 | 0.00 | 0.00 | 0.00 | 81 | 1018.7 |
| 20260508055826 | 3 | 85 | 0.0 | 0.0 | 0.00 | 0.00 | 0.00 | 81 | 1018.5 |
| 20260508055324 | 3 | 85 | 0.0 | 0.0 | 0.00 | 0.00 | 0.00 | 80 | 1018.7 |
| 20260508054820 | 3 | 85 | 0.0 | 0.0 | 0.00 | 0.00 | 0.00 | 80 | 1018.7 |
| 20260508054318 | 3 | 85 | 0.0 | 0.0 | 0.00 | 0.00 | 0.00 | 78 | 1018.6 |
| 20260508053815 | 3 | 85 | 0.0 | 0.0 | 0.00 | 0.00 | 0.00 | 77 | 1018.5 |
| 20260508053312 | 4 | 85 | 0.0 | 0.0 | 0.00 | 0.00 | 0.00 | 75 | 1018.5 |
| 20260508052809 | 4 | 85 | 0.0 | 0.0 | 0.00 | 0.00 | 0.00 | 75 | 1018.5 |
| 20260508052307 | 4 | 85 | 0.0 | 0.0 | 0.00 | 0.00 | 0.00 | 76 | 1018.5 |
| 20260508051802 | 4 | 85 | 0.0 | 0.0 | 0.00 | 0.00 | 0.00 | 76 | 1018.5 |
| 20260508051258 | 4 | 85 | 0.0 | 0.0 | 0.00 | 0.00 | 0.00 | 76 | 1018.4 |
| 20260508050755 | 4 | 85 | 1.6 | 0.0 | 0.00 | 0.00 | 0.00 | 77 | 1018.6 |
| 20260508050252 | 5 | 85 | 0.0 | 0.0 | 0.00 | 0.00 | 0.00 | 75 | 1018.6 |
| 20260508045747 | 5 | 85 | 0.0 | 0.0 | 0.00 | 0.00 | 0.00 | 74 | 1018.5 |
| 20260508045245 | 5 | 85 | 0.0 | 0.0 | 0.00 | 0.00 | 0.00 | 75 | 1018.6 |
| 20260508044743 | 5 | 85 | 0.0 | 0.0 | 0.00 | 0.00 | 0.00 | 75 | 1018.6 |
| 20260508044239 | 5 | 85 | 0.0 | 0.0 | 0.00 | 0.00 | 0.00 | 70 | 1018.5 |
| 20260508043735 | 5 | 85 | 0.0 | 0.0 | 0.00 | 0.00 | 0.00 | 69 | 1018.6 |
| 20260508043233 | 5 | 85 | 0.0 | 0.0 | 0.00 | 0.00 | 0.00 | 73 | 1018.6 |
| 20260508042729 | 6 | 85 | 0.0 | 0.0 | 0.00 | 0.00 | 0.00 | 68 | 1018.5 |
| 20260508042227 | 5 | 85 | 0.0 | 0.0 | 0.00 | 0.00 | 0.00 | 64 | 1018.5 |
| 20260508041723 | 5 | 79 | 0.0 | 0.0 | 0.00 | 0.00 | 0.00 | 66 | 1018.4 |
| 20260508041220 | 6 | 79 | 0.0 | 0.0 | 0.00 | 0.00 | 0.00 | 67 | 1018.3 |
| 20260508040717 | 6 | 79 | 0.0 | 0.0 | 0.00 | 0.00 | 0.00 | 67 | 1018.4 |
| 20260508040214 | 5 | 77 | 0.0 | 0.0 | 0.00 | 0.00 | 0.00 | 68 | 1018.2 |
| 20260508035711 | 5 | 71 | 0.0 | 0.0 | 0.00 | 0.03 | 0.03 | 74 | 1018.0 |
| 20260508035208 | 6 | 75 | 0.0 | 0.0 | 0.00 | 0.03 | 0.03 | 72 | 1018.3 |
| 20260508034705 | 6 | 60 | 0.0 | 0.0 | 0.00 | 0.03 | 0.03 | 72 | 1018.3 |
| 20260508034202 | 6 | 56 | 0.0 | 0.0 | 0.00 | 0.03 | 0.03 | 66 | 1018.2 |
| 20260508033659 | 6 | 88 | 0.0 | 0.0 | 0.00 | 0.03 | 0.03 | 66 | 1018.3 |
| 20260508033158 | 6 | 86 | 0.0 | 0.0 | 0.00 | 0.03 | 0.03 | 66 | 1018.3 |
| 20260508032654 | 6 | 86 | 0.0 | 0.0 | 0.00 | 0.03 | 0.03 | 63 | 1018.3 |
| 20260508032151 | 6 | 86 | 0.0 | 0.0 | 0.00 | 0.03 | 0.03 | 62 | 1018.2 |
| 20260508031648 | 7 | 86 | 0.0 | 0.0 | 0.00 | 0.03 | 0.03 | 63 | 1017.8 |
| 20260508031145 | 7 | 92 | 0.0 | 0.0 | 0.00 | 0.03 | 0.03 | 61 | 1018.0 |
| 20260508030641 | 7 | 92 | 0.0 | 0.0 | 0.00 | 0.03 | 0.03 | 62 | 1017.8 |
| 20260508030139 | 7 | 92 | 0.0 | 0.0 | 0.00 | 0.03 | 0.03 | 61 | 1017.8 |
| 20260508025635 | 7 | 88 | 0.0 | 0.0 | 0.00 | 0.03 | 0.03 | 59 | 1017.6 |
| 20260508025132 | 7 | 70 | 0.0 | 0.0 | 0.00 | 0.03 | 0.03 | 57 | 1017.6 |
| 20260508024628 | 7 | 59 | 0.0 | 0.0 | 0.00 | 0.03 | 0.03 | 59 | 1017.7 |
| 20260508024126 | 7 | 64 | 0.0 | 0.0 | 0.00 | 0.03 | 0.03 | 59 | 1017.6 |
| 20260508023621 | 8 | 67 | 0.0 | 0.0 | 0.00 | 0.03 | 0.03 | 59 | 1017.7 |
| 20260508023119 | 8 | 41 | 0.0 | 0.0 | 0.00 | 0.03 | 0.03 | 58 | 1017.3 |
| 20260508022615 | 8 | 50 | 0.0 | 0.0 | 0.00 | 0.03 | 0.03 | 60 | 1017.3 |
| 20260508022112 | 8 | 57 | 0.0 | 0.0 | 0.00 | 0.03 | 0.03 | 61 | 1017.4 |
| 20260508021608 | 8 | 37 | 0.0 | 0.0 | 0.00 | 0.03 | 0.03 | 60 | 1017.3 |
| 20260508021104 | 7 | 60 | 1.6 | 1.6 | 0.00 | 0.03 | 0.03 | 61 | 1017.4 |
| 20260508020601 | 7 | 70 | 0.0 | 0.0 | 0.00 | 0.03 | 0.03 | 61 | 1017.2 |
| 20260508020059 | 7 | 70 | 0.0 | 0.0 | 0.00 | 0.03 | 0.03 | 63 | 1017.0 |
| 20260508015556 | 8 | 76 | 0.0 | 0.0 | 0.00 | 0.03 | 0.03 | 64 | 1017.0 |
| 20260508015053 | 8 | 76 | 0.0 | 0.0 | 0.00 | 0.03 | 0.03 | 63 | 1017.2 |
| 20260508014549 | 8 | 70 | 0.0 | 0.0 | 0.00 | 0.03 | 0.03 | 64 | 1017.0 |
| 20260508014046 | 8 | 62 | 0.0 | 0.0 | 0.00 | 0.03 | 0.03 | 61 | 1017.0 |
| 20260508013542 | 8 | 52 | 0.0 | 0.0 | 0.00 | 0.03 | 0.03 | 62 | 1017.0 |
| 20260508013039 | 8 | 62 | 0.0 | 0.0 | 0.00 | 0.03 | 0.03 | 63 | 1016.8 |
| 20260508012536 | 8 | 63 | 0.0 | 0.0 | 0.00 | 0.03 | 0.03 | 63 | 1016.7 |
| 20260508012034 | 8 | 63 | 0.0 | 0.0 | 0.00 | 0.03 | 0.03 | 61 | 1016.7 |
| 20260508011532 | 9 | 52 | 0.0 | 0.0 | 0.00 | 0.03 | 0.03 | 60 | 1016.6 |
| 20260508011029 | 10 | 51 | 0.0 | 0.0 | 0.00 | 0.03 | 0.03 | 59 | 1016.4 |
| 20260508010526 | 10 | 51 | 0.0 | 0.0 | 0.00 | 0.03 | 0.03 | 57 | 1016.4 |
| 20260508010023 | 10 | 32 | 0.0 | 0.0 | 0.00 | 0.03 | 0.03 | 56 | 1016.7 |
| 20260508005519 | 10 | 29 | 0.0 | 0.0 | 0.00 | 0.03 | 0.03 | 53 | 1016.4 |
| 20260508005017 | 10 | 301 | 0.0 | 0.0 | 0.00 | 0.03 | 0.03 | 53 | 1016.3 |
| 20260508004513 | 10 | 39 | 1.6 | 1.6 | 0.00 | 0.03 | 0.03 | 54 | 1016.3 |
| 20260508004010 | 11 | 20 | 0.0 | 0.0 | 0.00 | 0.03 | 0.03 | 55 | 1016.2 |
| 20260508003506 | 11 | 335 | 3.2 | 3.2 | 0.00 | 0.03 | 0.03 | 53 | 1016.2 |
| 20260508003004 | 11 | 288 | 3.2 | 4.8 | 0.00 | 0.03 | 0.03 | 50 | 1016.3 |
| 20260508002459 | 11 | 308 | 3.2 | 3.2 | 0.00 | 0.03 | 0.03 | 50 | 1016.2 |
| 20260508001956 | 11 | 298 | 3.2 | 3.2 | 0.00 | 0.03 | 0.03 | 49 | 1016.2 |
| 20260508001452 | 11 | 296 | 3.2 | 4.8 | 0.00 | 0.03 | 0.03 | 49 | 1016.0 |
| 20260508000949 | 11 | 5 | 3.2 | 3.2 | 0.00 | 0.03 | 0.03 | 49 | 1015.9 |
| 20260508000444 | 12 | 276 | 6.4 | 9.7 | 0.00 | 0.03 | 0.03 | 49 | 1015.8 |
| 20260507235942 | 12 | 344 | 3.2 | 3.2 | 0.00 | 0.03 | 0.03 | 50 | 1015.7 |
| 20260507235438 | 12 | 330 | 1.6 | 1.6 | 0.00 | 0.03 | 0.03 | 50 | 1015.8 |
| 20260507234936 | 12 | 278 | 4.8 | 4.8 | 0.00 | 0.03 | 0.03 | 50 | 1015.7 |
| 20260507234433 | 12 | 33 | 3.2 | 4.8 | 0.00 | 0.03 | 0.03 | 49 | 1015.6 |
| 20260507233929 | 12 | 121 | 1.6 | 1.6 | 0.00 | 0.03 | 0.03 | 49 | 1015.7 |
| 20260507233426 | 12 | 271 | 3.2 | 3.2 | 0.00 | 0.03 | 0.03 | 49 | 1015.7 |
| 20260507232924 | 13 | 26 | 0.0 | 0.0 | 0.00 | 0.03 | 0.03 | 48 | 1015.7 |
| 20260507232420 | 13 | 332 | 3.2 | 3.2 | 0.00 | 0.03 | 0.03 | 49 | 1015.6 |
| 20260507231918 | 13 | 350 | 3.2 | 3.2 | 0.00 | 0.03 | 0.03 | 47 | 1015.6 |
| 20260507231414 | 13 | 54 | 1.6 | 1.6 | 0.00 | 0.03 | 0.03 | 47 | 1015.6 |
| 20260507230911 | 14 | 44 | 1.6 | 1.6 | 0.00 | 0.03 | 0.03 | 49 | 1015.7 |
| 20260507230408 | 13 | 314 | 4.8 | 4.8 | 0.00 | 0.03 | 0.03 | 47 | 1015.7 |
| 20260507225908 | 13 | 87 | 1.6 | 1.6 | 0.00 | 0.03 | 0.03 | 47 | 1015.6 |
| 20260507225405 | 13 | 26 | 3.2 | 4.8 | 0.00 | 0.03 | 0.03 | 47 | 1015.6 |
| 20260507224901 | 13 | 21 | 6.4 | 6.4 | 0.00 | 0.03 | 0.03 | 46 | 1015.4 |
| 20260507224357 | 13 | 285 | 9.7 | 11.3 | 0.00 | 0.03 | 0.03 | 48 | 1015.3 |
| 20260507223853 | 13 | 270 | 11.3 | 16.1 | 0.00 | 0.03 | 0.03 | 47 | 1015.2 |
| 20260507223350 | 13 | 300 | 4.8 | 4.8 | 0.00 | 0.03 | 0.03 | 48 | 1015.4 |
| 20260507222847 | 13 | 269 | 6.4 | 6.4 | 0.00 | 0.03 | 0.03 | 48 | 1015.3 |
| 20260507222343 | 13 | 266 | 6.4 | 9.7 | 0.00 | 0.03 | 0.03 | 48 | 1015.3 |
| 20260507221840 | 15 | 305 | 3.2 | 4.8 | 0.00 | 0.03 | 0.03 | 48 | 1015.1 |
| 20260507221337 | 15 | 316 | 3.2 | 4.8 | 0.00 | 0.03 | 0.03 | 48 | 1015.2 |
| 20260507220832 | 15 | 356 | 3.2 | 3.2 | 0.00 | 0.03 | 0.03 | 48 | 1015.1 |
| 20260507220331 | 15 | 341 | 9.7 | 12.9 | 0.00 | 0.03 | 0.03 | 47 | 1015.1 |
| 20260507215827 | 15 | 277 | 6.4 | 6.4 | 0.00 | 0.03 | 0.03 | 46 | 1015.0 |
| 20260507215325 | 15 | 279 | 9.7 | 11.3 | 0.00 | 0.03 | 0.03 | 44 | 1014.9 |
| 20260507214822 | 15 | 292 | 6.4 | 9.7 | 0.00 | 0.03 | 0.03 | 46 | 1014.9 |
| 20260507214320 | 14 | 265 | 12.9 | 16.1 | 0.00 | 0.03 | 0.03 | 47 | 1015.1 |
| 20260507213820 | 14 | 265 | 11.3 | 12.9 | 0.00 | 0.03 | 0.03 | 48 | 1015.0 |
| 20260507213317 | 15 | 343 | 3.2 | 3.2 | 0.00 | 0.03 | 0.03 | 47 | 1014.9 |
| 20260507212814 | 15 | 232 | 3.2 | 3.2 | 0.00 | 0.03 | 0.03 | 47 | 1014.6 |
| 20260507212310 | 14 | 285 | 8.0 | 12.9 | 0.00 | 0.03 | 0.03 | 49 | 1014.5 |
| 20260507211806 | 14 | 292 | 14.5 | 16.1 | 0.00 | 0.03 | 0.03 | 50 | 1014.5 |
| 20260507211303 | 13 | 297 | 8.0 | 9.7 | 0.00 | 0.03 | 0.03 | 53 | 1014.5 |
| 20260507210800 | 13 | 308 | 3.2 | 4.8 | 0.00 | 0.03 | 0.03 | 55 | 1014.7 |
| 20260507210257 | 13 | 290 | 3.2 | 3.2 | 0.00 | 0.03 | 0.03 | 54 | 1014.6 |
| 20260507205753 | 15 | 266 | 8.0 | 11.3 | 0.00 | 0.03 | 0.03 | 53 | 1014.5 |
| 20260507205251 | 15 | 325 | 4.8 | 6.4 | 0.00 | 0.03 | 0.03 | 50 | 1014.7 |
| 20260507204746 | 15 | 200 | 4.8 | 4.8 | 0.00 | 0.03 | 0.03 | 49 | 1014.4 |
| 20260507204245 | 14 | 72 | 1.6 | 3.2 | 0.00 | 0.03 | 0.03 | 54 | 1014.6 |
| 20260507203742 | 14 | 56 | 3.2 | 3.2 | 0.00 | 0.03 | 0.03 | 52 | 1014.3 |
| 20260507203239 | 14 | 282 | 8.0 | 6.4 | 0.00 | 0.03 | 0.03 | 53 | 1014.3 |
| 20260507202735 | 15 | 16 | 4.8 | 6.4 | 0.00 | 0.03 | 0.03 | 51 | 1014.4 |
| 20260507202232 | 15 | 271 | 3.2 | 4.8 | 0.00 | 0.03 | 0.03 | 52 | 1014.4 |
| 20260507201726 | 15 | 56 | 4.8 | 6.4 | 0.00 | 0.03 | 0.03 | 52 | 1014.5 |
| 20260507201224 | 13 | 279 | 4.8 | 4.8 | 0.00 | 0.03 | 0.03 | 54 | 1014.6 |
| 20260507200720 | 13 | 57 | 1.6 | 1.6 | 0.00 | 0.03 | 0.03 | 58 | 1014.5 |
| 20260507200216 | 13 | 47 | 1.6 | 1.6 | 0.00 | 0.03 | 0.03 | 55 | 1014.7 |
| 20260507195713 | 13 | 96 | 1.6 | 1.6 | 0.00 | 0.03 | 0.03 | 54 | 1014.9 |
| 20260507195210 | 13 | 52 | 3.2 | 3.2 | 0.00 | 0.03 | 0.03 | 53 | 1014.7 |
| 20260507194707 | 14 | 308 | 9.7 | 11.3 | 0.00 | 0.03 | 0.03 | 50 | 1014.7 |
| 20260507194203 | 14 | 291 | 9.7 | 11.3 | 0.00 | 0.03 | 0.03 | 49 | 1015.1 |
| 20260507193659 | 14 | 342 | 4.8 | 4.8 | 0.00 | 0.03 | 0.03 | 52 | 1015.1 |
| 20260507193157 | 14 | 280 | 8.0 | 9.7 | 0.00 | 0.03 | 0.03 | 50 | 1015.0 |
| 20260507192652 | 15 | 38 | 3.2 | 3.2 | 0.00 | 0.03 | 0.03 | 51 | 1015.0 |
| 20260507192150 | 14 | 53 | 1.6 | 1.6 | 0.00 | 0.03 | 0.03 | 53 | 1015.0 |
| 20260507191645 | 14 | 265 | 0.0 | 0.0 | 0.00 | 0.03 | 0.03 | 52 | 1014.7 |
| 20260507191142 | 15 | 53 | 1.6 | 1.6 | 0.00 | 0.03 | 0.03 | 53 | 1015.1 |
| 20260507190639 | 13 | 62 | 0.0 | 1.6 | 0.00 | 0.03 | 0.03 | 53 | 1015.2 |
| 20260507190138 | 14 | 259 | 8.0 | 9.7 | 0.00 | 0.03 | 0.03 | 53 | 1015.3 |
| 20260507185636 | 13 | 274 | 4.8 | 4.8 | 0.00 | 0.03 | 0.03 | 54 | 1015.2 |
| 20260507185132 | 14 | 272 | 4.8 | 6.4 | 0.00 | 0.03 | 0.03 | 54 | 1015.5 |
| 20260507184630 | 15 | 299 | 3.2 | 3.2 | 0.00 | 0.03 | 0.03 | 52 | 1015.4 |
| 20260507184128 | 15 | 298 | 3.2 | 4.8 | 0.00 | 0.03 | 0.03 | 55 | 1015.4 |
| 20260507183624 | 14 | 303 | 4.8 | 6.4 | 0.00 | 0.03 | 0.03 | 52 | 1015.5 |
| 20260507183121 | 14 | 304 | 8.0 | 9.7 | 0.00 | 0.03 | 0.03 | 54 | 1015.4 |
| 20260507182617 | 13 | 280 | 1.6 | 1.6 | 0.00 | 0.03 | 0.03 | 62 | 1015.5 |
| 20260507182113 | 13 | 65 | 3.2 | 3.2 | 0.00 | 0.03 | 0.03 | 56 | 1015.6 |
| 20260507181611 | 12 | 34 | 9.7 | 14.5 | 0.00 | 0.03 | 0.03 | 57 | 1015.6 |
| 20260507181107 | 13 | 300 | 9.7 | 12.9 | 0.00 | 0.03 | 0.03 | 55 | 1015.4 |
| 20260507180603 | 13 | 269 | 4.8 | 6.4 | 0.00 | 0.03 | 0.03 | 54 | 1015.5 |
| 20260507180100 | 12 | 29 | 3.2 | 3.2 | 0.00 | 0.03 | 0.03 | 63 | 1015.4 |
| 20260507175556 | 12 | 118 | 1.6 | 1.6 | 0.00 | 0.03 | 0.03 | 63 | 1015.5 |
| 20260507175054 | 12 | 281 | 8.0 | 9.7 | 0.00 | 0.03 | 0.03 | 58 | 1015.6 |
| 20260507174551 | 12 | 35 | 3.2 | 4.8 | 0.00 | 0.03 | 0.03 | 59 | 1015.7 |
| 20260507174049 | 12 | 280 | 4.8 | 4.8 | 0.00 | 0.03 | 0.03 | 59 | 1015.7 |
| 20260507173545 | 12 | 342 | 3.2 | 3.2 | 0.00 | 0.03 | 0.03 | 60 | 1015.6 |
| 20260507173042 | 12 | 59 | 3.2 | 3.2 | 0.00 | 0.03 | 0.03 | 59 | 1015.7 |
| 20260507172538 | 12 | 276 | 11.3 | 11.3 | 0.00 | 0.03 | 0.03 | 60 | 1015.7 |
| 20260507172036 | 11 | 305 | 1.6 | 1.6 | 0.00 | 0.03 | 0.03 | 62 | 1015.7 |
| 20260507171531 | 11 | 274 | 4.8 | 6.4 | 0.00 | 0.03 | 0.03 | 62 | 1015.8 |
| 20260507171028 | 11 | 299 | 6.4 | 9.7 | 0.00 | 0.03 | 0.03 | 62 | 1016.0 |
| 20260507170525 | 11 | 15 | 1.6 | 3.2 | 0.00 | 0.03 | 0.03 | 62 | 1015.8 |
| 20260507170022 | 11 | 8 | 1.6 | 3.2 | 0.00 | 0.03 | 0.03 | 61 | 1016.0 |
| 20260507165518 | 11 | 293 | 8.0 | 9.7 | 0.00 | 0.03 | 0.03 | 61 | 1016.0 |
| 20260507165014 | 12 | 262 | 1.6 | 1.6 | 0.00 | 0.03 | 0.03 | 60 | 1016.1 |
| 20260507164511 | 12 | 77 | 4.8 | 6.4 | 0.00 | 0.03 | 0.03 | 59 | 1016.0 |
| 20260507164008 | 12 | 37 | 1.6 | 1.6 | 0.00 | 0.03 | 0.03 | 62 | 1016.1 |
| 20260507163505 | 12 | 281 | 6.4 | 6.4 | 0.00 | 0.03 | 0.03 | 58 | 1016.0 |
| 20260507163002 | 13 | 339 | 3.2 | 3.2 | 0.00 | 0.03 | 0.03 | 56 | 1016.2 |
| 20260507162457 | 13 | 103 | 1.6 | 1.6 | 0.00 | 0.03 | 0.03 | 54 | 1016.2 |
| 20260507161954 | 13 | 122 | 1.6 | 1.6 | 0.00 | 0.03 | 0.03 | 57 | 1016.1 |
| 20260507161450 | 12 | 98 | 1.6 | 1.6 | 0.00 | 0.03 | 0.03 | 57 | 1016.1 |
| 20260507160948 | 12 | 51 | 3.2 | 4.8 | 0.00 | 0.03 | 0.03 | 61 | 1016.1 |
| 20260507160443 | 12 | 53 | 0.0 | 1.6 | 0.00 | 0.03 | 0.03 | 60 | 1016.2 |
| 20260507155939 | 12 | 43 | 1.6 | 1.6 | 0.00 | 0.03 | 0.03 | 59 | 1016.4 |
| 20260507155436 | 11 | 313 | 4.8 | 6.4 | 0.00 | 0.03 | 0.03 | 56 | 1016.1 |
| 20260507154933 | 11 | 87 | 1.6 | 1.6 | 0.00 | 0.03 | 0.03 | 59 | 1016.2 |
| 20260507154429 | 11 | 18 | 1.6 | 3.2 | 0.00 | 0.03 | 0.03 | 57 | 1016.1 |
| 20260507153927 | 11 | 289 | 6.4 | 6.4 | 0.00 | 0.03 | 0.03 | 61 | 1016.3 |
| 20260507153423 | 11 | 96 | 3.2 | 4.8 | 0.00 | 0.03 | 0.03 | 60 | 1016.4 |
| 20260507152919 | 11 | 72 | 0.0 | 0.0 | 0.00 | 0.03 | 0.03 | 66 | 1016.2 |
| 20260507152416 | 11 | 10 | 1.6 | 1.6 | 0.00 | 0.03 | 0.03 | 59 | 1016.7 |
| 20260507151912 | 11 | 65 | 4.8 | 4.8 | 0.00 | 0.03 | 0.03 | 62 | 1016.2 |
| 20260507151409 | 11 | 294 | 6.4 | 6.4 | 0.00 | 0.03 | 0.03 | 62 | 1016.3 |
| 20260507150906 | 11 | 58 | 1.6 | 1.6 | 0.00 | 0.03 | 0.03 | 63 | 1016.4 |
| 20260507150402 | 11 | 100 | 1.6 | 3.2 | 0.00 | 0.03 | 0.03 | 62 | 1016.6 |
| 20260507145858 | 11 | 46 | 4.8 | 4.8 | 0.00 | 0.03 | 0.03 | 66 | 1016.3 |
| 20260507145354 | 11 | 29 | 1.6 | 1.6 | 0.00 | 0.03 | 0.03 | 64 | 1016.7 |
| 20260507144852 | 10 | 345 | 0.0 | 3.2 | 0.00 | 0.03 | 0.03 | 67 | 1016.7 |
| 20260507144349 | 11 | 91 | 6.4 | 6.4 | 0.00 | 0.03 | 0.03 | 65 | 1016.6 |
| 20260507143845 | 11 | 63 | 4.8 | 6.4 | 0.00 | 0.03 | 0.03 | 64 | 1016.3 |
| 20260507143343 | 11 | 75 | 1.6 | 3.2 | 0.00 | 0.03 | 0.03 | 69 | 1016.4 |
| 20260507142839 | 10 | 81 | 1.6 | 1.6 | 0.00 | 0.03 | 0.03 | 68 | 1016.6 |
| 20260507142335 | 11 | 305 | 0.0 | 0.0 | 0.00 | 0.03 | 0.03 | 69 | 1016.8 |
| 20260507141832 | 10 | 54 | 0.0 | 0.0 | 0.00 | 0.03 | 0.03 | 75 | 1016.6 |
| 20260507141329 | 10 | 75 | 1.6 | 3.2 | 0.00 | 0.03 | 0.03 | 74 | 1016.3 |
| 20260507140825 | 10 | 38 | 1.6 | 1.6 | 0.00 | 0.03 | 0.03 | 73 | 1017.0 |
| 20260507140322 | 10 | 21 | 3.2 | 3.2 | 0.00 | 0.03 | 0.03 | 72 | 1017.0 |
| 20260507135820 | 10 | 18 | 3.2 | 3.2 | 0.00 | 0.03 | 0.03 | 77 | 1016.8 |
| 20260507135317 | 10 | 91 | 1.6 | 1.6 | 0.00 | 0.03 | 0.03 | 77 | 1017.0 |
| 20260507134814 | 10 | 50 | 0.0 | 1.6 | 0.00 | 0.03 | 0.03 | 79 | 1016.8 |
| 20260507134310 | 9 | 70 | 0.0 | 0.0 | 0.00 | 0.03 | 0.03 | 78 | 1017.0 |
| 20260507133805 | 9 | 62 | 1.6 | 1.6 | 0.00 | 0.03 | 0.03 | 80 | 1017.1 |
| 20260507133302 | 8 | 51 | 0.0 | 1.6 | 0.00 | 0.03 | 0.03 | 82 | 1017.1 |
| 20260507132800 | 8 | 81 | 1.6 | 1.6 | 0.00 | 0.03 | 0.03 | 84 | 1017.1 |
| 20260507132256 | 8 | 95 | 1.6 | 1.6 | 0.00 | 0.03 | 0.03 | 82 | 1017.2 |
| 20260507131753 | 8 | 75 | 0.0 | 0.0 | 0.00 | 0.03 | 0.03 | 85 | 1017.2 |
| 20260507131250 | 8 | 100 | 3.2 | 3.2 | 0.00 | 0.03 | 0.03 | 82 | 1017.1 |
| 20260507130747 | 8 | 51 | 0.0 | 1.6 | 0.00 | 0.03 | 0.03 | 84 | 1017.1 |
| 20260507130245 | 8 | 58 | 0.0 | 0.0 | 0.00 | 0.03 | 0.03 | 84 | 1017.2 |
| 20260507125743 | 8 | 53 | 1.6 | 1.6 | 0.00 | 0.03 | 0.03 | 85 | 1017.2 |
| 20260507125241 | 8 | 37 | 0.0 | 0.0 | 0.00 | 0.03 | 0.03 | 83 | 1017.3 |
| 20260507124737 | 8 | 51 | 0.0 | 0.0 | 0.00 | 0.03 | 0.03 | 86 | 1017.2 |
| 20260507124234 | 8 | 37 | 1.6 | 1.6 | 0.00 | 0.03 | 0.03 | 84 | 1017.2 |
| 20260507123732 | 8 | 59 | 0.0 | 1.6 | 0.00 | 0.03 | 0.03 | 85 | 1017.3 |
| 20260507123230 | 8 | 179 | 3.2 | 3.2 | 0.00 | 0.03 | 0.03 | 84 | 1017.2 |
| 20260507122724 | 8 | 39 | 3.2 | 3.2 | 0.00 | 0.03 | 0.03 | 85 | 1017.1 |
| 20260507122221 | 8 | 39 | 1.6 | 0.0 | 0.00 | 0.03 | 0.03 | 85 | 1017.2 |
| 20260507121716 | 8 | 294 | 4.8 | 4.8 | 0.00 | 0.03 | 0.03 | 86 | 1017.0 |
| 20260507121213 | 8 | 56 | 0.0 | 0.0 | 0.00 | 0.03 | 0.03 | 87 | 1017.1 |
| 20260507120709 | 8 | 46 | 0.0 | 0.0 | 0.00 | 0.03 | 0.03 | 87 | 1016.9 |
| 20260507120206 | 7 | 49 | 0.0 | 0.0 | 0.00 | 0.03 | 0.03 | 88 | 1016.8 |
| 20260507115702 | 7 | 49 | 0.0 | 0.0 | 0.00 | 0.03 | 0.03 | 88 | 1017.0 |
| 20260507115158 | 7 | 49 | 0.0 | 0.0 | 0.00 | 0.03 | 0.03 | 88 | 1016.8 |
| 20260507114654 | 7 | 58 | 1.6 | 1.6 | 0.00 | 0.03 | 0.03 | 89 | 1017.0 |
| 20260507114151 | 7 | 50 | 0.0 | 0.0 | 0.00 | 0.03 | 0.03 | 89 | 1016.8 |
| 20260507113649 | 7 | 70 | 0.0 | 0.0 | 0.00 | 0.03 | 0.03 | 90 | 1016.7 |
| 20260507113145 | 7 | 52 | 0.0 | 0.0 | 0.00 | 0.03 | 0.03 | 90 | 1016.7 |
| 20260507112643 | 7 | 70 | 1.6 | 0.0 | 0.00 | 0.03 | 0.03 | 90 | 1016.6 |
| 20260507112140 | 7 | 49 | 1.6 | 1.6 | 0.00 | 0.03 | 0.03 | 90 | 1016.7 |